{"data":{"norad_id":64082,"epoch":"2026-09-20T11:17:39.510816Z","epoch_age_seconds":146061,"freshness":"FRESH","line1":"1 64082U 25107U   26263.47059619  .00012303  00000+0  45569-3 0  9995","line2":"2 64082  42.9979 181.1769 0001771 274.5130  85.5519 15.27590962 75914","mean_motion":15.27590962,"eccentricity":0.0001771,"inclination_deg":42.9979,"raan_deg":181.1769,"arg_perigee_deg":274.513,"mean_anomaly_deg":85.5519,"bstar":0.00045569,"rev_number":7591,"period_min":94.266072255015,"perigee_km":481.8011618199,"apogee_km":484.23138230887,"semimajor_km":6861.1532720644,"source":"CELESTRAK","updated_at":"2026-09-21T09:00:35.195498Z"}}